Location: Haliburton Scout Reserve
(45.0900°N, 78.3200°W)
Time: 17:22:33
(UTC-05:00)

Courier 1B - Pass Details

Date: 03 December 2023
Orbit: 962 x 1209 km, 28.3° (Epoch: 23 February)

Event Time Altitude Azimuth Distance (km) Brightness Sun altitude
Rises 13:08:17 0° 245° (WSW) 3,645 11.1 21.1°
Reaches altitude 10° 13:12:04 10° 224° (SW) 2,686 11.1 21.0°
Maximum altitude 13:15:42 16° 189° (S) 2,298 11.9 20.8°
Drops below altitude 10° 13:19:21 10° 154° (SSE) 2,695 10.6 20.6°
Sets 13:23:09 0° 133° (SE) 3,665 10.8 20.3°
